EHI
0 0 0 0 0 0 0 0 0 0 0 0 0 2 7 11 11 11 13 15 16 16 16 15 13 12 14 19 25 29 27 23 21 21 22 20 16 12 11 12 13 12 9 7
0 0 0 0 0 0 0 0 0 0 0 0 0 2 7 10 11 11 11 14 16 18 19 19 18 17 17 19 23 26 27 25 24 25 25 22 17 14 13 13 13 13 12 11
0 0 0 0 0 0 0 0 0 0 0 0 0 2 6 8 9 9 9 10 14 19 23 23 21 20 19 18 19 23 27 28 27 27 24 21 19 16 14 12 13 14 14 13
0 0 0 0 0 0 0 0 0 0 0 0 0 2 5 6 6 6 7 8 12 19 23 23 22 21 18 15 17 23 28 29 28 26 21 19 18 16 13 13 14 15 13 11
0 0 0 0 0 0 0 0 0 0 0 0 0 2 5 5 3 4 5 6 10 18 23 24 25 23 18 13 16 24 30 30 29 27 23 20 18 16 15 17 18 16 13 12
0 0 0 0 0 0 0 0 0 0 0 0 0 2 3 3 2 3 4 5 10 17 22 25 27 26 22 16 18 27 33 32 31 28 25 23 20 17 17 19 19 15 13 13
0 0 0 0 0 0 0 0 0 0 1 0 0 1 1 1 3 5 6 8 12 16 21 24 26 26 25 21 21 29 35 34 31 26 23 22 20 16 14 15 15 13 11 12
0 0 0 0 0 0 0 0 0 0 0 0 1 1 1 1 4 6 8 10 13 17 21 23 24 25 24 22 22 28 34 35 31 27 24 22 20 14 11 11 11 11 11 12
0 0 0 0 0 0 0 0 0 0 0 0 1 1 1 2 3 5 7 10 12 16 20 21 20 21 22 21 21 25 32 34 31 29 27 24 22 19 15 13 11 11 12 13
0 0 0 0 0 0 0 0 0 0 0 0 1 1 2 3 2 3 6 10 12 14 17 17 16 17 18 19 20 24 30 32 30 28 25 23 24 24 21 17 14 13 14 14
0 0 0 0 0 0 0 0 0 0 0 0 0 1 2 3 2 2 6 10 12 13 14 15 15 15 15 17 20 24 28 30 28 26 24 24 27 27 24 19 16 16 17 17
0 0 0 0 0 0 0 0 0 0 0 0 0 1 3 4 3 3 7 12 15 15 15 16 17 18 18 19 22 25 27 26 24 24 25 28 30 28 25 21 19 19 20 20
0 0 0 0 0 0 0 0 0 0 0 0 0 2 4 5 6 7 11 17 20 20 19 19 22 23 22 23 24 25 26 23 22 23 26 29 30 28 25 23 23 22 21 20
0 0 0 0 0 0 0 0 0 0 0 0 0 3 6 8 9 10 14 19 23 25 25 26 27 26 25 25 24 23 22 22 22 23 24 26 27 25 23 22 22 22 20 19
0 0 0 0 0 0 0 0 0 0 0 0 1 3 7 11 12 12 15 19 23 27 30 31 30 29 26 22 21 19 18 19 21 21 21 22 23 23 22 20 19 19 19 18
0 0 0 0 0 0 0 0 0 0 0 0 1 5 10 14 15 15 17 20 23 27 30 29 28 27 23 20 19 18 17 18 20 21 20 20 22 23 23 22 20 19 18 17
0 0 0 0 0 0 0 0 0 0 0 0 3 7 14 19 18 17 20 22 24 25 25 24 23 22 20 19 20 19 18 19 22 22 20 19 21 23 23 22 21 19 18 17
0 0 0 0 0 0 0 0 0 0 0 1 4 9 16 20 20 18 20 22 23 24 25 24 21 18 18 18 20 20 19 19 22 21 18 18 20 22 22 21 19 18 17 17
0 0 0 0 0 0 0 0 0 0 0 1 4 9 14 18 20 20 22 24 25 26 28 25 21 18 17 17 19 20 19 18 18 18 17 16 17 19 19 19 18 17 16 16
0 0 0 0 0 0 0 0 0 0 0 1 4 9 13 17 21 24 27 29 29 28 25 21 19 19 20 19 20 21 20 18 18 18 17 16 15 16 17 19 19 17 14 14
0 0 0 0 0 0 0 0 0 2 2 3 7 14 18 21 24 26 27 27 27 26 21 18 18 21 23 22 22 23 22 22 22 20 19 17 15 14 16 20 21 18 14 12
0 0 0 0 0 0 1 1 1 4 6 7 12 20 24 24 24 23 20 19 20 22 20 18 19 23 24 23 23 24 25 26 26 24 20 18 16 14 16 21 22 19 15 12
1 1 0 0 0 0 1 2 2 3 6 8 12 18 20 19 18 18 16 14 15 18 19 18 19 21 22 21 22 23 24 26 26 23 19 17 16 14 16 18 18 15 12 10
1 2 1 0 0 0 1 3 3 2 4 7 9 11 12 14 16 17 17 16 16 16 16 17 17 19 19 20 21 21 21 22 21 18 16 15 14 13 14 14 12 10 8 6
1 1 0 0 1 1 2 3 3 2 3 5 7 6 8 13 18 20 21 19 17 15 15 16 17 18 19 20 21 22 22 22 20 16 15 14 14 13 12 10 7 5 4 3
0 0 0 1 2 3 5 4 2 1 2 4 4 4 6 13 21 24 23 21 17 15 15 16 16 17 18 21 24 24 24 23 21 17 15 15 15 15 12 8 4 2 2 2
Wind_Speed
10 9 7 6 7 8 8 7 4 2 1 1 1 4 7 6 6 7 7 8 8 8 8 7 7 7 6 5 4 3 2 2 1 0 0 0 0 0 1 1 1 1 0 1
8 10 8 6 7 7 7 7 4 2 1 1 2 3 7 7 7 6 7 8 8 9 9 8 8 7 6 5 4 3 2 2 1 0 0 0 0 0 1 1 2 1 0 0
10 8 6 8 8 5 7 6 5 5 5 5 3 3 6 7 7 6 6 7 9 9 10 8 7 7 6 6 5 3 3 2 1 1 0 0 1 1 1 1 1 1 1 1
10 10 7 8 7 6 7 5 6 7 7 5 4 2 5 4 5 6 5 6 8 8 9 9 7 6 6 6 5 4 3 2 2 2 0 0 1 1 1 1 1 1 1 1
8 8 8 8 7 6 8 7 8 7 8 7 4 1 3 4 4 5 6 5 7 8 8 8 7 6 6 6 5 5 4 3 2 2 1 1 1 1 1 1 2 1 1 1
11 9 7 7 6 7 8 9 9 7 6 6 4 3 1 4 4 6 7 7 6 8 7 7 7 6 5 5 5 5 5 3 2 2 2 1 1 1 2 2 1 1 1 1
10 11 9 6 6 8 8 7 5 5 3 4 3 1 2 6 6 7 8 7 7 7 8 7 6 6 5 5 4 5 5 4 3 3 2 2 1 1 1 1 1 1 1 1
10 8 7 6 6 6 7 7 5 6 5 3 1 2 5 5 8 8 8 8 7 7 8 7 6 6 5 5 4 5 5 4 3 3 3 2 1 1 0 0 1 1 1 2
7 6 5 5 6 7 7 6 7 8 9 5 1 2 5 5 8 8 8 7 6 7 8 8 7 6 5 5 4 4 5 4 3 3 3 3 2 1 1 1 1 1 1 1
9 8 6 6 7 8 8 8 6 6 4 6 3 1 2 5 4 6 7 7 6 5 7 8 7 6 6 5 5 4 4 4 3 3 2 3 2 2 1 1 0 1 1 1
9 9 8 7 7 7 7 8 6 5 6 5 3 2 4 7 5 5 7 7 7 5 5 8 7 6 6 5 5 4 4 4 3 3 2 2 2 2 2 1 1 0 1 1
7 8 8 9 8 8 9 9 8 6 5 4 4 0 3 4 4 5 7 7 7 5 5 6 7 6 5 4 4 4 3 3 3 3 2 2 2 2 1 1 1 1 1 1
4 6 8 8 6 6 7 8 9 8 6 4 4 1 2 3 4 6 7 8 7 6 6 6 6 5 5 5 4 3 2 3 3 3 3 2 2 2 1 0 1 0 0 1
5 8 9 8 6 6 8 9 9 9 6 4 2 2 3 2 3 5 6 8 7 7 5 5 6 5 5 4 3 3 3 3 3 2 2 2 2 2 1 1 1 1 1 1
6 8 10 10 8 9 10 10 9 8 8 6 2 2 2 1 4 5 5 6 7 6 6 5 5 5 4 3 3 3 3 3 3 2 2 2 2 1 1 1 1 1 1 1
6 7 9 11 11 10 10 9 8 8 7 5 2 4 4 2 4 5 6 5 6 5 5 5 5 5 4 3 2 2 2 2 2 2 3 2 2 1 0 0 0 0 1 2
6 7 9 11 10 10 10 7 6 6 5 5 2 4 6 5 5 5 5 4 4 5 5 5 4 3 3 3 3 2 2 2 2 2 2 2 1 1 1 1 2 2 2 1
7 6 7 9 9 11 4 1 3 4 2 3 1 4 6 7 6 5 5 4 4 5 5 4 3 4 4 3 3 3 3 2 2 2 1 1 1 1 1 1 1 1 1 1
8 6 7 8 10 9 6 3 4 2 1 2 1 3 6 7 6 5 5 4 6 6 6 5 4 5 4 4 3 3 3 2 1 1 1 1 1 1 1 1 1 1 1 1
8 6 8 8 10 8 3 4 5 2 2 4 4 4 5 3 2 3 5 6 6 7 5 5 5 5 4 3 3 2 2 2 1 1 1 1 1 1 1 0 0 1 1 1
7 7 9 10 9 4 4 4 4 4 3 4 4 5 5 5 4 5 5 6 6 5 5 5 4 4 4 4 2 2 2 1 1 1 1 1 1 1 1 0 0 1 1 2
6 6 7 7 7 3 6 4 3 4 4 4 5 6 7 6 6 6 6 5 5 4 4 4 4 4 4 3 2 2 2 2 1 1 0 0 1 2 0 0 1 2 3 2
5 3 3 2 1 1 2 3 4 2 2 2 3 5 5 4 4 5 5 4 4 4 3 3 3 3 3 3 2 2 1 1 1 1 1 1 1 1 1 1 2 2 2 2
2 1 2 1 1 1 1 2 3 3 2 2 2 3 3 4 3 3 4 3 2 3 3 2 2 2 2 2 2 1 1 1 1 1 1 1 1 1 1 1 1 1 1 2
3 2 3 4 2 2 1 2 2 3 2 2 2 2 2 3 3 3 3 3 2 2 2 2 2 1 2 2 1 1 1 1 1 1 2 2 2 1 0 1 1 1 1 0
6 4 5 4 2 2 1 1 1 1 1 1 1 1 1 2 3 3 3 3 2 2 2 2 1 0 1 1 1 0 0 0 2 2 3 2 2 1 1 1 0 1 1 2
Wind_Direction
235 238 245 243 234 241 263 284 293 324 2 342 136 150 153 158 140 141 145 144 143 142 138 134 132 131 124 117 115 115 112 99 100 95 310 141 130 101 81 101 89 95 22 44
246 243 247 259 259 257 266 285 291 298 229 267 196 168 150 148 143 148 151 149 150 149 148 147 146 144 140 134 129 133 135 129 146 112 267 209 132 123 107 76 105 103 95 27
245 254 249 254 249 256 267 266 290 309 299 265 239 176 151 142 143 144 147 146 148 151 153 153 157 158 157 149 149 153 151 146 151 116 30 18 116 92 64 75 83 46 50 45
244 255 252 265 267 265 272 284 289 280 279 267 246 182 126 135 151 145 146 148 150 150 149 153 159 164 162 158 155 142 135 137 137 134 41 37 73 65 48 37 64 69 63 37
257 247 253 259 272 279 290 299 287 283 281 284 295 278 158 162 171 153 146 142 149 147 148 149 154 163 162 158 151 144 133 128 136 148 142 79 33 43 46 48 50 46 56 35
262 262 253 259 273 274 284 285 278 269 271 273 282 281 163 165 171 153 145 145 141 138 136 132 138 140 144 143 139 133 127 128 139 144 127 104 78 57 39 40 62 45 71 48
251 247 237 236 251 259 265 274 283 276 241 249 246 201 149 147 147 138 130 125 125 127 125 129 132 134 132 132 132 129 127 135 141 143 138 132 135 125 86 32 27 6 43 49
251 241 227 225 242 271 268 269 277 293 296 296 242 163 119 111 123 120 121 123 129 130 129 130 127 123 126 132 127 123 126 137 148 153 157 149 140 139 122 84 333 13 30 41
274 264 248 245 246 259 266 271 278 283 291 299 266 117 110 109 116 115 116 118 122 130 135 134 131 130 128 116 114 125 128 138 150 152 152 143 148 158 85 50 22 30 34 35
265 278 264 249 250 236 255 275 279 278 293 290 273 155 129 117 119 128 130 125 122 129 137 133 133 133 131 127 115 117 132 142 145 135 140 136 149 144 124 113 85 21 17 21
259 267 262 244 246 254 245 256 272 296 302 298 309 4 123 139 153 148 133 125 121 117 129 129 130 131 130 128 126 113 106 107 113 117 128 138 137 137 142 130 112 13 0 9
252 267 263 256 249 245 259 265 265 263 274 284 293 323 121 111 115 115 116 115 112 116 109 116 122 121 121 117 110 110 109 109 106 106 108 101 113 116 117 112 92 53 14 2
271 269 261 254 244 240 256 266 275 275 267 263 265 175 114 82 81 92 107 111 106 101 97 102 98 100 96 92 84 90 97 93 95 103 105 94 86 82 73 62 100 92 24 355
260 261 271 272 277 275 266 271 273 275 274 272 237 156 130 90 84 89 106 118 119 110 100 97 97 90 91 93 94 86 76 76 78 86 105 97 85 76 67 43 29 15 20 18
252 258 271 279 277 276 265 261 263 268 283 286 233 171 138 141 114 108 107 112 115 116 112 101 98 98 93 100 106 90 79 70 71 75 83 84 87 87 74 64 33 12 3 1
252 273 280 278 276 276 272 264 265 264 268 268 243 134 128 143 108 99 99 107 115 114 112 104 97 97 96 98 106 108 99 94 89 85 78 74 73 65 49 70 60 40 27 15
247 262 274 274 277 272 262 263 270 282 284 278 279 128 136 118 93 88 93 99 107 119 117 109 108 107 106 113 110 105 100 94 93 85 84 84 86 67 36 26 35 23 19 20
243 253 260 267 272 264 267 278 261 280 311 338 52 111 110 108 99 89 92 96 101 111 115 118 119 109 92 80 87 90 90 89 94 94 78 61 73 66 45 43 43 11 353 358
227 237 257 263 262 260 251 259 246 246 284 327 67 92 104 110 119 100 80 87 102 102 100 100 97 93 87 75 75 80 78 84 84 91 80 21 24 36 49 33 15 358 340 337
219 213 239 255 268 270 293 357 0 307 209 32 46 82 95 113 142 92 79 87 94 96 96 95 94 92 89 79 73 77 79 67 55 59 58 1 352 344 327 336 329 312 297 283
218 222 235 250 260 268 345 341 313 289 63 39 46 65 71 65 74 99 95 85 87 96 102 103 99 93 86 74 68 71 72 54 43 60 82 17 347 289 265 205 228 249 253 257
239 241 238 247 261 274 360 0 22 49 41 39 55 74 81 86 95 105 105 99 98 99 105 107 98 94 92 85 72 70 59 45 39 25 47 34 319 299 308 257 247 245 249 254
236 254 270 293 240 60 44 45 59 63 32 42 67 90 97 99 101 107 111 109 104 99 96 103 114 102 94 90 78 81 56 45 34 21 351 331 307 297 281 238 264 266 265 280
243 235 251 261 164 6 23 43 35 33 40 40 58 90 109 111 113 118 124 120 113 108 101 97 106 107 98 92 88 95 75 55 36 341 296 268 254 260 303 309 324 341 338 330
293 259 258 249 235 229 168 32 37 42 37 48 56 85 119 128 129 127 124 122 114 107 101 88 79 96 100 95 98 97 64 2 306 289 274 252 239 221 206 5 345 14 359 278
271 257 249 265 302 278 291 44 53 86 34 48 112 103 109 127 131 133 132 131 131 124 124 127 127 172 148 135 141 106 112 298 289 281 278 275 262 222 202 185 211 356 261 254